Seattle Boeing, WA

4:52 PM PST on November 23, 2017 (GMT -0800)
Boeing Field-King County International

Weather History for KBFI - October, 2013

Change the Weather History Date:

Tuesday, October 1, 2013

  Actual Average Record
Temperature  
Mean Temperature 54 °F -  
Max Temperature 60 °F 65 °F 89 °F (1987)
Min Temperature 48 °F 49 °F 35 °F (1950)
Degree Days  
Heating Degree Days 12    
Growing Degree Days 4 (Base 50)    
Moisture  
Dew Point 45 °F    
Average Humidity 75    
Maximum Humidity 83    
Minimum Humidity 55    
Precipitation  
Precipitation 0.08 in - - ()
Sea Level Pressure  
Sea Level Pressure 30.02 in    
Wind  
Wind Speed 10 mph (SSE)    
Max Wind Speed 15 mph    
Max Gust Speed 20 mph    
Visibility 10 miles    
Events Rain    
Averages and records for this station are not official NWS values.
T = Trace of Precipitation, MM = Missing Value Source: NWS Daily Summary

Daily Weather History Graph

Daily Weather History Graph

Search for Another Location

Airport or City:

Trip Planner

Search our weather history database for the weather conditions in past years. The results will help you decide how hot, cold, wet, or windy it might be!

Date:

Astronomy

Oct. 01, 2013 Rise Set
Actual Time 7:08 AM PDT 6:47 PM PDT
Civil Twilight 6:38 AM PDT 7:18 PM PDT
Nautical Twilight 6:02 AM PDT 7:54 PM PDT
Astronomical Twilight 5:25 AM PDT 8:30 PM PDT
Moon 3:36 AM PDT (10/1) 5:03 PM PDT (10/1)
Length of Visible Light 12h 40m
Length of Day
11h 39m
Waning Crescent, 11% of the Moon is Illuminated
Oct 1
Waning Crescent
Oct 4
New
Oct 11
First Quarter
Oct 18
Full
Oct 26
Last Quarter

Hourly Weather History & Observations

Time (PDT) Temp. Dew Point Humidity Pressure Visibility Wind Dir Wind Speed Gust Speed Precip Events Conditions
12:53 AM 52.0 °F 43.0 °F 71% 29.93 in 10.0 mi South 12.7 mph - N/A   Mostly Cloudy
1:53 AM 52.0 °F 44.1 °F 74% 29.94 in 10.0 mi SSE 6.9 mph - 0.00 in   Overcast
2:53 AM 50.0 °F 44.1 °F 80% 29.94 in 10.0 mi ESE 6.9 mph - N/A   Overcast
3:16 AM 50.0 °F 44.6 °F 82% 29.94 in 10.0 mi SSE 10.4 mph - N/A   Overcast
3:53 AM 50.0 °F 45.0 °F 83% 29.94 in 10.0 mi SE 9.2 mph - N/A   Overcast
4:07 AM 50.0 °F 44.6 °F 82% 29.93 in 10.0 mi SE 9.2 mph - N/A   Mostly Cloudy
4:53 AM 50.0 °F 45.0 °F 83% 29.94 in 10.0 mi SE 9.2 mph - N/A   Mostly Cloudy
5:53 AM 48.9 °F 44.1 °F 83% 29.94 in 10.0 mi SE 9.2 mph - N/A   Scattered Clouds
6:53 AM 48.9 °F 44.1 °F 83% 29.95 in 10.0 mi SE 5.8 mph - N/A   Mostly Cloudy
7:53 AM 50.0 °F 44.1 °F 80% 29.96 in 10.0 mi SE 5.8 mph - N/A   Mostly Cloudy
8:53 AM 51.1 °F 45.0 °F 80% 29.98 in 10.0 mi SSE 6.9 mph - 0.00 in Rain Light Rain
9:53 AM 51.1 °F 46.0 °F 83% 29.98 in 10.0 mi SE 8.1 mph - 0.04 in   Mostly Cloudy
10:53 AM 54.0 °F 46.9 °F 77% 30.00 in 10.0 mi SE 9.2 mph - 0.00 in   Mostly Cloudy
11:53 AM 55.0 °F 46.0 °F 72% 30.01 in 10.0 mi South 9.2 mph - 0.00 in Rain Light Rain
12:53 PM 55.9 °F 46.9 °F 72% 30.03 in 10.0 mi SSE 13.8 mph - 0.02 in   Overcast
12:58 PM 55.4 °F 46.4 °F 72% 30.03 in 10.0 mi SSE 15.0 mph - N/A   Scattered Clouds
1:53 PM 57.0 °F 45.0 °F 64% 30.04 in 10.0 mi South 13.8 mph - N/A   Scattered Clouds
2:53 PM 59.0 °F 43.0 °F 55% 30.04 in 10.0 mi South 11.5 mph - N/A   Mostly Cloudy
3:53 PM 57.0 °F 43.0 °F 59% 30.05 in 10.0 mi South 11.5 mph - N/A   Mostly Cloudy
4:53 PM 57.0 °F 43.0 °F 59% 30.07 in 6.0 mi SSE 12.7 mph - N/A Rain Light Rain
5:53 PM 55.0 °F 46.9 °F 74% 30.08 in 10.0 mi SSE 9.2 mph - 0.02 in Rain Light Rain
6:53 PM 54.0 °F 48.0 °F 80% 30.09 in 10.0 mi SE 10.4 mph - 0.00 in   Overcast
7:53 PM 54.0 °F 46.9 °F 77% 30.10 in 10.0 mi SSE 10.4 mph - N/A   Overcast
8:49 PM 55.4 °F 46.4 °F 72% 30.11 in 10.0 mi SSE 11.5 mph - N/A   Overcast
8:53 PM 55.0 °F 46.9 °F 74% 30.11 in 10.0 mi SSE 10.4 mph - N/A   Overcast
9:02 PM 55.4 °F 46.4 °F 72% 30.11 in 10.0 mi South 12.7 mph 19.6 mph N/A   Overcast
9:53 PM 54.0 °F 46.0 °F 75% 30.11 in 10.0 mi South 13.8 mph - N/A   Mostly Cloudy
10:53 PM 54.0 °F 46.0 °F 75% 30.12 in 10.0 mi South 12.7 mph 19.6 mph N/A   Overcast
11:53 PM 55.0 °F 45.0 °F 69% 30.12 in 10.0 mi South 11.5 mph - N/A   Overcast